Weather History for Appleton, WI

Change the Weather History Date:

Tuesday, July 16, 2013

  Actual Average Record
Temperature  
Mean Temperature 80 °F -  
Max Temperature 89 °F 83 °F 96 °F (2012)
Min Temperature 71 °F 62 °F 46 °F (2014)
Cooling Degree Days 15    
Growing Degree Days 30 (Base 50)    
Moisture  
Dew Point 71 °F    
Average Humidity 78    
Maximum Humidity 100    
Minimum Humidity 55    
Precipitation  
Precipitation 0.00 in - - ()
Sea Level Pressure  
Sea Level Pressure 30.26 in    
Wind  
Wind Speed 4 mph (SSW)    
Max Wind Speed 22 mph    
Max Gust Speed 37 mph    
Visibility 10 miles    
Events Rain , Thunderstorm    
Averages and records for this station are not official NWS values.
T = Trace of Precipitation, MM = Missing Value Source: NWS Daily Summary

Daily Weather History Graph

Daily Weather History Graph

Search for Another Location

Airport:

Trip Planner

Search our weather history database for the weather conditions in past years. The results will help you decide how hot, cold, wet, or windy it might be!

Date:

Astronomy

Jul. 16, 2013 Rise Set
Actual Time 5:25 AM CDT 8:34 PM CDT
Civil Twilight 4:50 AM CDT 9:09 PM CDT
Nautical Twilight 4:05 AM CDT 9:54 PM CDT
Astronomical Twilight 3:10 AM CDT 10:48 PM CDT
Moon 2:10 PM CDT (7/16) 12:01 AM CDT (7/16)
Length of Visible Light 16h 19m
Length of Day
15h 08m
First Quarter, 56% of the Moon is Illuminated
Jul 16
First Quarter
Jul 22
Full
Jul 29
Last Quarter
Aug 6
New
Aug 14
First Quarter

Hourly Weather History & Observations

Time (CDT) Temp. Heat Index Dew Point Humidity Pressure Visibility Wind Dir Wind Speed Gust Speed Precip Events Conditions
12:15 AM 75.2 °F - 69.8 °F 83% 30.26 in 10.0 mi SSE 4.6 mph - N/A   Scattered Clouds
12:35 AM 75.2 °F - 69.8 °F 83% 30.26 in 10.0 mi SSE 3.5 mph - N/A   Scattered Clouds
12:55 AM 75.2 °F - 69.8 °F 83% 30.26 in 10.0 mi Calm Calm - N/A   Clear
1:15 AM 73.4 °F - 69.8 °F 88% 30.26 in 10.0 mi Calm Calm - N/A   Scattered Clouds
1:35 AM 73.4 °F - 69.8 °F 88% 30.26 in 10.0 mi Calm Calm - N/A   Clear
1:55 AM 73.4 °F - 69.8 °F 88% 30.27 in 10.0 mi Calm Calm - N/A   Clear
2:15 AM 73.4 °F - 69.8 °F 88% 30.27 in 10.0 mi Calm Calm - N/A   Clear
2:35 AM 73.4 °F - 69.8 °F 88% 30.27 in 10.0 mi Calm Calm - N/A   Clear
2:55 AM 73.4 °F - 69.8 °F 88% 30.27 in 10.0 mi Calm Calm - N/A   Clear
3:15 AM 73.4 °F - 69.8 °F 88% 30.27 in 10.0 mi SSE 4.6 mph - N/A   Clear
3:35 AM 73.4 °F - 69.8 °F 88% 30.27 in 10.0 mi South 4.6 mph - N/A   Clear
3:55 AM 73.4 °F - 69.8 °F 88% 30.27 in 10.0 mi South 5.8 mph - N/A   Clear
4:15 AM 73.4 °F - 69.8 °F 88% 30.28 in 10.0 mi South 3.5 mph - N/A   Clear
4:35 AM 73.4 °F - 69.8 °F 88% 30.28 in 10.0 mi South 3.5 mph - N/A   Mostly Cloudy
4:55 AM 73.4 °F - 69.8 °F 88% 30.28 in 10.0 mi SSW 3.5 mph - N/A   Overcast
5:15 AM 73.4 °F - 69.8 °F 88% 30.28 in 10.0 mi SSW 3.5 mph - N/A   Overcast
6:45 AM 75.2 °F - 71.6 °F 89% 30.28 in 7.0 mi South 5.8 mph - N/A   Mostly Cloudy
7:45 AM 78.8 °F - 73.4 °F 83% 30.28 in 7.0 mi South 5.8 mph - N/A   Mostly Cloudy
9:45 AM 82.4 °F 88.2 °F 73.4 °F 74% 30.29 in 10.0 mi WSW 8.1 mph - N/A   Scattered Clouds
10:45 AM 84.2 °F 89.6 °F 71.6 °F 66% 30.29 in 10.0 mi SW 8.1 mph - N/A   Scattered Clouds
11:45 AM 84.2 °F 88.4 °F 69.8 °F 62% 30.28 in 10.0 mi WSW 5.8 mph - N/A   Mostly Cloudy
12:45 PM 87.8 °F 92.6 °F 69.8 °F 55% 30.27 in 10.0 mi SW 9.2 mph - N/A   Mostly Cloudy
1:45 PM 87.8 °F 93.8 °F 71.6 °F 58% 30.26 in 10.0 mi SSW 12.7 mph - N/A   Mostly Cloudy
2:45 PM 89.6 °F 96.2 °F 71.6 °F 55% 30.25 in 10.0 mi SSW 10.4 mph - N/A   Mostly Cloudy
3:10 PM 89.6 °F 96.2 °F 71.6 °F 55% 30.24 in 10.0 mi SSW 11.5 mph - N/A   Mostly Cloudy
3:45 PM 89.6 °F 96.2 °F 71.6 °F 55% 30.23 in 10.0 mi SSW 12.7 mph - N/A   Mostly Cloudy
4:45 PM 87.8 °F 92.6 °F 69.8 °F 55% 30.24 in 10.0 mi SW 10.4 mph - N/A   Mostly Cloudy
5:01 PM 86.0 °F 90.4 °F 69.8 °F 58% 30.26 in 5.0 mi West 21.9 mph 36.8 mph N/A Rain , Thunderstorm Heavy Thunderstorms and Rain
5:22 PM 71.6 °F - 71.6 °F 100% 30.25 in 7.0 mi SSW 9.2 mph - N/A Rain Light Rain
5:45 PM 73.4 °F - 71.6 °F 94% 30.24 in 10.0 mi Calm Calm - N/A   Mostly Cloudy
6:45 PM 82.4 °F 87.2 °F 71.6 °F 70% 30.23 in 10.0 mi Calm Calm - N/A   Mostly Cloudy
7:45 PM 82.4 °F 88.2 °F 73.4 °F 74% 30.23 in 10.0 mi Calm Calm - N/A   Mostly Cloudy
8:45 PM 80.6 °F 85.4 °F 73.4 °F 79% 30.22 in 10.0 mi Variable 4.6 mph - N/A   Mostly Cloudy
9:45 PM 78.8 °F - 73.4 °F 83% 30.24 in 10.0 mi Variable 4.6 mph - N/A   Mostly Cloudy
10:45 PM 78.8 °F - 71.6 °F 78% 30.25 in 10.0 mi SW 5.8 mph - N/A   Mostly Cloudy
10:55 PM 78.8 °F - 71.6 °F 78% 30.25 in 10.0 mi SW 6.9 mph - N/A   Clear
11:35 PM 78.8 °F - 71.6 °F 78% 30.26 in 10.0 mi SW 8.1 mph - N/A   Clear
11:55 PM 78.8 °F - 69.8 °F 74% 30.26 in 10.0 mi WSW 8.1 mph - N/A   Clear